This is the latest recevied weather packets stored in our database for station/object KI4BIY. If no packets are shown the sender has not sent any weather packets the latest 10 day(s).
| Time | Temp. | Humidity | Pressure | Rain* | Wind** | Luminosity | Snow |
|---|---|---|---|---|---|---|---|
| 1777691358 | 11.67° C | 67% | 1016.2 hPa | 0 mm | - | 0 W/m² | - |
| 1777691056 | 11.67° C | 68% | 1016.3 hPa | 0 mm | - | 0 W/m² | - |
| 1777690754 | 11.67° C | 70% | 1016.4 hPa | 0 mm | - | 0 W/m² | - |
| 1777690451 | 12.22° C | 72% | 1016.5 hPa | 0 mm | - | 0 W/m² | - |
| 1777690149 | 12.22° C | 73% | 1016.4 hPa | 0 mm | - | 0 W/m² | - |
| 1777689846 | 12.22° C | 72% | 1016.7 hPa | 0 mm | - | 0 W/m² | - |
| 1777689544 | 12.22° C | 69% | 1016.9 hPa | 0 mm | - | 0 W/m² | - |
| 1777689241 | 12.22° C | 70% | 1017.1 hPa | 0 mm | - | 0 W/m² | - |
| 1777688939 | 12.22° C | 63% | 1017.1 hPa | 0 mm | - | 0 W/m² | - |
| 1777688635 | 12.22° C | 63% | 1016.9 hPa | 0 mm | - | 0 W/m² | - |
| 1777688332 | 12.22° C | 66% | 1016.8 hPa | 0 mm | - | 0 W/m² | - |
| 1777688030 | 12.78° C | 64% | 1016.6 hPa | 0 mm | - | 0 W/m² | - |
| 1777687727 | 12.78° C | 68% | 1016.5 hPa | 0 mm | - | 0 W/m² | - |
| 1777687424 | 12.78° C | 67% | 1016.5 hPa | 0 mm | - | 0 W/m² | - |
| 1777687121 | 12.78° C | 63% | 1016.5 hPa | 0 mm | - | 0 W/m² | - |
| 1777686818 | 12.78° C | 68% | 1016.8 hPa | 0 mm | - | 0 W/m² | - |
| 1777686516 | 12.78° C | 64% | 1016.8 hPa | 0 mm | - | 0 W/m² | - |
| 1777686213 | 12.78° C | 64% | 1016.7 hPa | 0 mm | - | 0 W/m² | - |
| 1777685908 | 12.78° C | 61% | 1016.6 hPa | 0 mm | - | 0 W/m² | - |
| 1777685604 | 12.78° C | 64% | 1016.2 hPa | 0 mm | - | 0 W/m² | - |
| 1777685301 | 12.78° C | 60% | 1016.3 hPa | 0 mm | - | 0 W/m² | - |
| 1777684999 | 12.78° C | 63% | 1016.2 hPa | 0 mm | - | 0 W/m² | - |
| 1777684696 | 12.78° C | 64% | 1015.9 hPa | 0 mm | - | 0 W/m² | - |
| 1777684392 | 12.78° C | 64% | 1015.7 hPa | 0 mm | - | 0 W/m² | - |
| 1777684089 | 12.78° C | 64% | 1015.6 hPa | 0 mm | - | 0 W/m² | - |
* Rain latest hour (hover to see other rain measurements)
** Current wind speed in m/s (hover to see current wind gust speed)